This is the latest recevied weather packets stored in our database for station/object KC3ELT-10. If no packets are shown the sender has not sent any weather packets the latest 10 day(s).
| Time | Temp. | Humidity | Pressure | Rain* | Wind** | Luminosity | Snow |
|---|---|---|---|---|---|---|---|
| 1777804079 | 4.44° C | 67% | 1006.6 hPa | 0 mm | 1.34 m/s, 0° | - | - |
| 1777803779 | 4.44° C | 66% | 1006.6 hPa | 0 mm | 1.79 m/s, 348° | - | - |
| 1777803479 | 4.44° C | 67% | 1006.6 hPa | 0 mm | 0.89 m/s, 0° | - | - |
| 1777803179 | 4.44° C | 66% | 1006.3 hPa | 0 mm | 1.34 m/s, 19° | - | - |
| 1777802879 | 4.44° C | 66% | 1006.3 hPa | 0 mm | 1.34 m/s, 359° | - | - |
| 1777802579 | 4.44° C | 66% | 1006.3 hPa | 0 mm | 0.89 m/s, 352° | - | - |
| 1777802279 | 4.44° C | 66% | 1006.2 hPa | 0 mm | 0.89 m/s, 359° | - | - |
| 1777801979 | 4.44° C | 65% | 1006.2 hPa | 0 mm | 0.89 m/s, 356° | - | - |
| 1777801678 | 4.44° C | 65% | 1006.2 hPa | 0 mm | 1.79 m/s, 346° | - | - |
| 1777801379 | 4.44° C | 65% | 1005.9 hPa | 0 mm | 1.34 m/s, 337° | - | - |
| 1777801079 | 4.44° C | 65% | 1005.9 hPa | 0 mm | 1.34 m/s, 357° | - | - |
| 1777800778 | 4.44° C | 64% | 1005.9 hPa | 0 mm | 1.79 m/s, 6° | - | - |
| 1777800479 | 4.44° C | 64% | 1005.9 hPa | 0 mm | 1.34 m/s, 359° | - | - |
| 1777800179 | 4.44° C | 64% | 1005.9 hPa | 0 mm | 1.34 m/s, 354° | - | - |
| 1777799879 | 4.44° C | 64% | 1005.9 hPa | 0 mm | 1.79 m/s, 351° | - | - |
| 1777799579 | 4.44° C | 64% | 1005.8 hPa | 0 mm | 2.24 m/s, 350° | - | - |
| 1777799279 | 4.44° C | 64% | 1005.8 hPa | 0 mm | 1.34 m/s, 339° | - | - |
| 1777798979 | 4.44° C | 64% | 1005.8 hPa | 0 mm | 0.89 m/s, 23° | - | - |
| 1777798679 | 4.44° C | 64% | 1005.7 hPa | 0 mm | 0.89 m/s, 1° | - | - |
| 1777798379 | 4.44° C | 64% | 1005.7 hPa | 0 mm | 1.34 m/s, 348° | - | - |
| 1777798079 | 4.44° C | 63% | 1005.7 hPa | 0 mm | 0.89 m/s, 0° | - | - |
| 1777797779 | 4.44° C | 63% | 1005.7 hPa | 0 mm | 1.34 m/s, 359° | - | - |
| 1777797479 | 4.44° C | 63% | 1005.7 hPa | 0 mm | 1.34 m/s, 5° | - | - |
| 1777797179 | 4.44° C | 63% | 1005.7 hPa | 0 mm | 1.79 m/s, 359° | - | - |
| 1777796879 | 4.44° C | 63% | 1005.7 hPa | 0 mm | 1.34 m/s, 357° | - | - |
* Rain latest hour (hover to see other rain measurements)
** Current wind speed in m/s (hover to see current wind gust speed)